This demonstration page uses our WeatherBlox Daily Observations layout. Learn more.

36.19886, -115.1175

Hourly Observations for August 31, 2019

Temp ( °F °C ) Dew Point ( °F °C ) Humidity (%) Winds ( mph kmh ) Pressure ( in mb ) Visibility ( mi km ) Precip ( " mm )
12:53 am 00:53 Clear 87 30.6 29 -1.7 12 12 NNW 3 6 29.82 1010 10 16.0934 0 0
1:53 am 01:53 Clear 84 28.9 33 0.6 16 16 NE 3 6 29.82 1010 10 16.0934 0 0
2:53 am 02:53 Clear 85 29.4 27 -2.8 12 12 N 5 7 29.83 1010 10 16.0934 0 0
3:53 am 03:53 Clear 82 27.8 29 -1.7 14 14 WNW 8 13 29.83 1010 10 16.0934 0 0
4:53 am 04:53 Clear 81 27.2 33 0.6 18 18 W 6 9 29.83 1010 10 16.0934 0 0
5:53 am 05:53 Clear 79 26.1 33 0.6 19 19 Calm 29.86 1011 10 16.0934 0 0
6:53 am 06:53 Sunny 79 26.1 34 1.1 20 20 NW 5 7 29.88 1012 10 16.0934 0 0
7:53 am 07:53 Sunny 85 29.4 35 1.7 17 17 W 6 9 29.89 1012 10 16.0934 0 0
8:53 am 08:53 Sunny 91 32.8 30 -1.1 11 11 Calm 29.9 1013 10 16.0934 0 0
9:53 am 09:53 Sunny 94 34.4 35 1.7 13 13 E 6 9 29.9 1013 10 16.0934 0 0
10:53 am 10:53 Sunny 95 35 35 1.7 12 12 Calm 29.9 1012 10 16.0934 0 0
11:53 am 11:53 Sunny 101 38.3 40 4.4 12 12 Calm 29.88 1012 10 16.0934 0 0
12:53 pm 12:53 Sunny 103 39.4 37 2.8 10 10 E 8 13 29.86 1011 10 16.0934 0 0
1:53 pm 13:53 Sunny 105 40.6 34 1.1 8 8 S 7 11 29.83 1010 10 16.0934 0 0
2:53 pm 14:53 Sunny 108 42.2 28 -2.2 6 6 SSW 10 17 29.79 1009 10 16.0934 0 0
3:53 pm 15:53 Sunny 108 42.2 29 -1.7 6 6 SSW 14 22 29.78 1008 10 16.0934 0 0
4:53 pm 16:53 Sunny 107 41.7 27 -2.8 6 6 SSW 13 20 29.76 1008 10 16.0934 0 0
5:53 pm 17:53 Sunny 106 41.1 26 -3.3 6 6 SSW 8 13 29.76 1008 10 16.0934 0 0
6:53 pm 18:53 Sunny 104 40 14 -10 4 4 SW 6 9 29.76 1008 10 16.0934 0 0
7:53 pm 19:53 Clear 100 37.8 15 -9.4 4 4 SW 7 11 29.77 1008 10 16.0934 0 0
8:53 pm 20:53 Clear 97 36.1 16 -8.9 5 5 SW 7 11 29.78 1009 10 16.0934 0 0
9:53 pm 21:53 Clear 94 34.4 18 -7.8 6 6 S 5 7 29.8 1009 10 16.0934 0 0
10:53 pm 22:53 Clear 90 32.2 19 -7.2 7 7 SW 6 9 29.82 1010 10 16.0934 0 0
11:53 pm 23:53 Clear 85 29.4 25 -3.9 11 11 WNW 8 13 29.83 1010 10 16.0934 0 0

Powered by AerisWeather